EW4071 Weather Reports


Display with metric or nautical units.
time (UTC)temp
F
wind
direction
speed
MPH
gust
MPH
rain 1hr
in
rain 24hr
in
rain mn
in
humidity
%
barometer
mb
20260901213051 100 168 9.0 14.0 0.00 0.00 0.00 30 1009.7
20260901211546 99 152 5.0 11.0 0.00 0.00 0.00 31 1009.7
20260901210044 100 147 10.0 15.0 0.00 0.00 0.00 30 1010.0
20260901204543 99 223 3.0 16.0 0.00 0.00 0.00 29 1010.2
20260901203041 99 213 3.0 12.0 0.00 0.00 0.00 31 1010.4
20260901201549 99 143 10.0 17.0 0.00 0.00 0.00 31 1010.6
20260901200035 98 197 2.0 13.0 0.00 0.00 0.00 32 1010.7
20260901194537 97 221 1.0 9.0 0.00 0.00 0.00 35 1010.8
20260901193035 97 172 10.0 16.0 0.00 0.00 0.00 33 1011.0
20260901191530 98 173 9.0 15.0 0.00 0.00 0.00 32 1011.2
20260901190030 98 123 10.0 15.0 0.00 0.00 0.00 32 1011.2
20260901184550 98 178 4.0 11.0 0.00 0.00 0.00 32 1011.5
20260901183027 97 232 1.0 13.0 0.00 0.00 0.00 32 1011.6
20260901181545 98 209 8.0 11.0 0.00 0.00 0.00 31 1011.7
20260901180026 98 232 7.0 15.0 0.00 0.00 0.00 32 1012.0
20260901174545 98 210 10.0 16.0 0.00 0.00 0.00 31 1012.2
20260901173021 97 234 7.0 15.0 0.00 0.00 0.00 35 1012.3
20260901171522 97 259 5.0 11.0 0.00 0.00 0.00 36 1012.5
20260901170019 96 244 4.0 12.0 0.00 0.00 0.00 36 1012.6
20260901164515 96 239 5.0 11.0 0.00 0.00 0.00 38 1012.8
20260901163014 95 177 0.0 9.0 0.00 0.00 0.00 39 1013.0
20260901161510 94 211 0.0 10.0 0.00 0.00 0.00 41 1013.0
20260901160011 92 223 0.0 2.0 0.00 0.00 0.00 44 1013.1
20260901154505 92 230 4.0 10.0 0.00 0.00 0.00 44 1013.1
20260901153002 90 216 2.0 10.0 0.00 0.00 0.00 45 1013.1
20260901151603 89 235 0.0 8.0 0.00 0.00 0.00 49 1013.1
20260901150053 87 225 0.0 8.0 0.00 0.00 0.00 51 1013.1
20260901144550 86 195 4.0 11.0 0.00 0.00 0.00 51 1013.2
20260901143101 85 228 0.0 1.0 0.00 0.00 0.00 53 1013.2
20260901141546 83 154 0.0 0.0 0.00 0.00 0.00 59 1013.3
20260901140048 81 141 0.0 0.0 0.00 0.00 0.00 60 1013.4
20260901134542 80 158 0.0 0.0 0.00 0.00 0.00 61 1013.4
20260901133043 79 148 0.0 0.0 0.00 0.00 0.00 62 1013.3
20260901131542 78 137 0.0 0.0 0.00 0.00 0.00 64 1013.2
20260901130039 77 139 0.0 0.0 0.00 0.00 0.00 65 1013.2
20260901124538 76 145 0.0 0.0 0.00 0.00 0.00 65 1013.2
20260901123046 75 145 0.0 0.0 0.00 0.00 0.00 65 1012.9
20260901121541 76 145 0.0 0.0 0.00 0.00 0.00 64 1012.9
20260901120044 76 145 0.0 0.0 0.00 0.00 0.00 63 1012.7
20260901114538 75 145 0.0 0.0 0.00 0.00 0.00 64 1012.5
20260901113035 75 145 0.0 0.0 0.00 0.00 0.00 64 1012.5
20260901111530 76 145 0.0 0.0 0.00 0.00 0.00 64 1012.4
20260901110023 76 152 0.0 0.0 0.00 0.00 0.00 63 1012.4
20260901104520 77 136 0.0 4.0 0.00 0.00 0.00 62 1012.3
20260901103017 77 149 0.0 0.0 0.00 0.00 0.00 62 1012.2
20260901101515 78 131 0.0 0.0 0.00 0.00 0.00 61 1012.1
20260901100012 77 202 0.0 0.0 0.00 0.00 0.00 62 1012.0
20260901094512 77 153 0.0 0.0 0.00 0.00 0.00 61 1011.9
20260901093006 78 147 0.0 0.0 0.00 0.00 0.00 60 1011.8
20260901091506 78 156 0.0 0.0 0.00 0.00 0.00 60 1011.7
20260901090011 78 154 0.0 0.0 0.00 0.00 0.00 60 1011.6
20260901084503 78 151 0.0 0.0 0.00 0.00 0.00 60 1011.5
20260901083002 78 151 0.0 0.0 0.00 0.00 0.00 59 1011.5
20260901081559 79 142 0.0 0.0 0.00 0.00 0.00 58 1011.4
20260901080058 79 142 0.0 0.0 0.00 0.00 0.00 57 1011.3
20260901074557 79 142 0.0 0.0 0.00 0.00 0.00 56 1011.3
20260901073054 80 142 0.0 0.0 0.00 0.00 0.00 56 1011.3
20260901071554 80 142 0.0 0.0 0.00 0.00 0.00 56 1011.3
20260901070054 80 142 0.0 0.0 0.00 0.00 0.00 55 1011.4
20260901064548 81 142 0.0 0.0 0.00 0.00 0.00 54 1011.3
20260901063100 84 175 0.0 0.0 0.00 0.00 0.00 48 1011.3
20260901061557 85 234 0.0 0.0 0.00 0.00 0.00 46 1011.4
20260901060045 85 213 0.0 6.0 0.00 0.00 0.00 47 1011.4
20260901054543 83 204 0.0 0.0 0.00 0.00 0.00 50 1011.3
20260901053042 84 153 0.0 8.0 0.00 0.00 0.00 49 1011.3
20260901051541 84 164 0.0 2.0 0.00 0.00 0.00 49 1011.3
20260901050032 84 147 0.0 0.0 0.00 0.00 0.00 50 1011.2
20260901044531 84 197 0.0 2.0 0.00 0.00 0.00 49 1011.0
20260901043034 84 145 0.0 0.0 0.00 0.00 0.00 50 1011.0
20260901041530 85 153 0.0 1.0 0.00 0.00 0.00 49 1010.8
20260901040031 86 152 0.0 1.0 0.00 0.00 0.00 47 1010.8
20260901034533 86 134 0.0 1.0 0.00 0.00 0.00 47 1010.8
20260901033027 86 168 0.0 0.0 0.00 0.00 0.00 46 1010.7
20260901031526 87 157 0.0 0.0 0.00 0.00 0.00 45 1010.4
20260901030025 88 160 0.0 0.0 0.00 0.00 0.00 44 1010.2
20260901024524 88 150 0.0 8.0 0.00 0.00 0.00 43 1010.0
20260901023031 89 145 0.0 1.0 0.00 0.00 0.00 43 1009.9
20260901021524 89 155 0.0 0.0 0.00 0.00 0.00 42 1009.6
20260901020024 90 150 0.0 0.0 0.00 0.00 0.00 42 1009.3
20260901014522 90 142 0.0 0.0 0.00 0.00 0.00 41 1009.2
20260901013022 91 134 0.0 1.0 0.00 0.00 0.00 41 1009.1
20260901011521 92 148 1.0 7.0 0.00 0.00 0.00 40 1009.0
20260901010021 93 140 0.0 0.0 0.00 0.00 0.00 39 1008.8
20260901004519 94 153 0.0 8.0 0.00 0.00 0.00 38 1008.8
20260901003019 95 156 0.0 11.0 0.00 0.00 0.00 37 1008.7
20260901001518 96 150 1.0 9.0 0.00 0.00 0.00 37 1008.6
20260901000019 97 151 1.0 12.0 0.00 0.00 0.00 36 1008.6
20260831234518 97 159 8.0 14.0 0.00 0.00 0.00 35 1008.6
20260831233018 98 197 6.0 10.0 0.00 0.00 0.00 34 1008.6
20260831231516 99 135 9.0 15.0 0.00 0.00 0.00 34 1008.5
20260831230022 99 187 0.0 14.0 0.00 0.00 0.00 33 1008.5
20260831224513 100 153 10.0 16.0 0.00 0.00 0.00 32 1008.6
20260831223013 100 165 7.0 13.0 0.00 0.00 0.00 33 1008.6
20260831221514 100 157 7.0 14.0 0.00 0.00 0.00 31 1008.7
20260831220011 100 196 3.0 12.0 0.00 0.00 0.00 32 1008.8
20260831214509 100 224 7.0 14.0 0.00 0.00 0.00 32 1008.9